Regional Weather Roundup
Issued by NWS Raleigh/Durham, NC

Home | Current Version | Previous Version | Text Only | Print | Product List | Glossary On
Versions: 1 2 3 4 5 6 7 8 9 10 11 12 13 14 15 16 17 18 19 20 21 22 23 24 25 26 27
000
ASUS42 KRAH 052210
RWRRAH
NORTH CAROLINA WEATHER ROUNDUP
NATIONAL WEATHER SERVICE RALEIGH NC
600 PM EDT THU MAY 05 2016

NOTE: "FAIR" INDICATES FEW OR NO CLOUDS BELOW 12,000 FEET WITH NO
SIGNIFICANT WEATHER AND/OR OBSTRUCTIONS TO VISIBILITY.

NCZ001-053-055-056-065-067-052300-
WESTERN NORTH CAROLINA

CITY           SKY/WX    TMP DP  RH WIND       PRES   REMARKS
ASHEVILLE      MOSUNNY   52  37  56 N15G25    29.72R
JEFFERSON      LGT RAIN  39  35  85 NW13G22   29.69R WCI  32
MORGANTON      CLOUDY    58  35  43 NW7       29.73R
HICKORY        CLOUDY    57  35  43 N13       29.67R
RUTHERFORDTON  PTSUNNY   61  33  34 N14G28    29.68R
MOUNT AIRY     RAIN      47  43  88 NW7       29.71R
BOONE          RAIN      42  35  75 NW15G23   29.71R
$$

NCZ021-022-025-041-071-084-088-052300-
CENTRAL NORTH CAROLINA

CITY           SKY/WX    TMP DP  RH WIND       PRES   REMARKS
CHARLOTTE      PTSUNNY   58  41  53 N16G23    29.65R
GREENSBORO     LGT RAIN  46  45  93 NW10      29.66R
WINSTON-SALEM  LGT RAIN  47  43  86 NW13G20   29.68R
RALEIGH-DURHAM PTSUNNY   54  49  83 N12G22    29.62R
FORT BRAGG     CLOUDY    57  46  67 NW14      29.62R
FAYETTEVILLE   CLOUDY    59  44  57 NW13      29.61R
BURLINGTON     LGT RAIN  48  44  86 NW10G22   29.64R
LAURINBURG     MOSUNNY   63  45  51 N10G21    29.63R
$$

NCZ011-015-027-028-043-044-047-080-103-052300-
NORTHEASTERN NORTH CAROLINA

CITY           SKY/WX    TMP DP  RH WIND       PRES   REMARKS
ROCKY MT-WILSO CLOUDY    54  51  90 VRB3      29.60R
GREENVILLE     RAIN      54  54 100 N5        29.63R
WASHINGTON     HVY RAIN  54  52  94 N9        29.59R
ELIZABETH CITY LGT RAIN  51  49  92 NE18      29.60R FOG
MANTEO         CLOUDY    52  50  94 NE15      29.58R
CAPE HATTERAS  RAIN      54  53  97 N8G18     29.54R FOG
$$

NCZ078-087-090-091-093-098-101-052300-
SOUTHEASTERN NORTH CAROLINA

CITY           SKY/WX    TMP DP  RH WIND       PRES   REMARKS
LUMBERTON      PTSUNNY   60  46  59 N14G21    29.61R
GOLDSBORO      CLOUDY    57  57 100 N6        29.58R
KINSTON        PTSUNNY   54  52  94 N7        29.60R
KENANSVILLE    CLOUDY    58  50  73 CALM      29.60S
NEW BERN       HVY RAIN  56  53  90 N17       29.57S FOG
CHERRY POINT   LGT RAIN  56  52  86 N17G23    29.56R
BEAUFORT       RAIN      56  53  90 N7        29.54S
JACKSONVILLE   CLOUDY    57  54  89 NW12      29.57R
WILMINGTON     MOSUNNY   60  49  66 N13       29.58R
$$





USA.gov is the U.S. government's official web portal to all federal, state and local government web resources and services.